�N����,����,�~����,�C��,���x,�C��,����,���ϕ���,�ő�u�ԕ���,�ő厞����,���˗�,�I�_���x,�n�����x,�ő啗���N��,DTYPE
"18/12/02","00:10",0.0,8.8,86.6,1021.1,308.6,2.0,2.4,318.3,0.00,6.7,11.6,"00:08:24",1
"18/12/02","00:20",0.0,8.4,87.4,1021.3,295.4,1.8,2.2,316.1,0.00,6.5,11.4,"00:14:48",1
"18/12/02","00:30",0.0,8.2,88.7,1021.1,311.8,2.0,2.5,314.7,0.00,6.5,11.3,"00:23:36",1
"18/12/02","00:40",0.0,8.0,89.1,1020.8,324.4,2.2,3.4,325.0,0.00,6.4,11.6,"00:34:24",1
"18/12/02","00:50",0.0,7.7,89.8,1021.1,313.6,1.7,2.2,311.8,0.00,6.2,11.4,"00:47:04",1
"18/12/02","01:00",0.0,7.4,90.7,1021.3,301.2,1.6,2.1,315.4,0.00,6.0,11.2,"00:50:40",1
"18/12/02","01:10",0.0,7.4,91.4,1021.3,286.8,1.8,2.6,299.8,0.00,6.1,11.0,"01:03:28",1
"18/12/02","01:20",0.0,7.2,91.4,1021.1,300.9,1.7,2.6,321.3,0.00,5.9,11.1,"01:18:24",1
"18/12/02","01:30",0.0,7.1,91.8,1021.3,295.1,1.7,2.7,316.1,0.00,5.9,11.1,"01:26:08",1
"18/12/02","01:40",0.0,6.8,92.1,1021.3,290.5,1.5,2.1,292.5,0.00,5.6,10.9,"01:34:40",1
"18/12/02","01:50",0.0,6.6,92.5,1021.5,296.5,1.7,2.1,315.9,0.00,5.5,10.9,"01:43:12",1
"18/12/02","02:00",0.0,6.7,93.3,1021.3,315.7,2.1,2.9,319.9,0.00,5.7,10.8,"01:58:56",1
"18/12/02","02:10",0.0,7.1,93.1,1021.8,324.7,3.1,4.4,337.0,0.00,6.1,10.8,"02:06:08",1
"18/12/02","02:20",0.0,7.4,92.7,1021.3,319.9,3.5,5.5,320.9,0.00,6.3,10.8,"02:12:56",1
"18/12/02","02:30",0.0,7.1,91.8,1021.8,312.2,2.2,4.2,321.0,0.00,5.9,10.6,"02:23:12",1
"18/12/02","02:40",0.0,6.7,92.0,1022.0,310.4,1.1,2.1,311.7,0.00,5.5,10.6,"02:39:28",1
"18/12/02","02:50",0.0,6.4,92.8,1021.8,303.4,1.8,2.5,318.9,0.00,5.4,10.5,"02:40:24",1
"18/12/02","03:00",0.0,6.5,93.3,1021.5,304.1,2.1,3.2,320.8,0.00,5.5,10.6,"02:52:32",1
"18/12/02","03:10",0.0,6.3,93.3,1021.5,295.8,2.0,3.5,327.3,0.00,5.3,10.3,"03:00:16",1
"18/12/02","03:20",0.0,6.1,93.5,1022.0,296.0,1.7,2.1,316.6,0.00,5.2,10.3,"03:11:52",1
"18/12/02","03:30",0.0,5.7,93.8,1021.5,302.8,1.0,1.6,312.9,0.00,4.8,10.4,"03:20:32",1
"18/12/02","03:40",0.0,5.2,93.6,1021.5,308.6,1.8,2.7,313.6,0.00,4.3,10.2,"03:34:56",1
"18/12/02","03:50",0.0,5.2,94.9,1021.5,314.6,1.2,2.1,320.5,0.00,4.5,10.3,"03:40:48",1
"18/12/02","04:00",0.0,4.9,95.1,1021.3,292.2,1.2,2.0,302.1,0.00,4.2,10.2,"03:59:52",1
"18/12/02","04:10",0.0,4.8,94.5,1021.1,311.0,1.5,2.1,301.6,0.00,4.0,10.1,"04:00:08",1
"18/12/02","04:20",0.0,4.7,95.8,1021.3,294.5,1.5,2.1,314.7,0.00,4.1,9.9,"04:15:44",1
"18/12/02","04:30",0.0,5.0,95.9,1021.5,319.2,1.6,2.1,341.7,0.00,4.4,9.9,"04:29:52",1
"18/12/02","04:40",0.0,4.6,95.7,1021.3,291.9,1.2,1.8,339.1,0.00,4.0,9.8,"04:31:36",1
"18/12/02","04:50",0.0,4.4,95.9,1021.3,304.2,2.0,2.5,313.9,0.00,3.8,9.7,"04:49:04",1
"18/12/02","05:00",0.0,4.7,96.8,1021.3,295.6,1.6,2.6,273.3,0.00,4.3,9.7,"04:56:16",1
"18/12/02","05:10",0.0,5.1,96.3,1021.3,305.5,1.5,2.7,322.9,0.00,4.6,9.7,"05:03:12",1
"18/12/02","05:20",0.0,4.8,95.3,1021.3,299.9,1.3,2.7,305.5,0.00,4.2,9.7,"05:12:48",1
"18/12/02","05:30",0.0,4.3,96.2,1021.3,310.8,2.0,2.2,315.1,0.00,3.8,9.6,"05:22:00",1
"18/12/02","05:40",0.0,4.2,96.5,1021.1,296.9,1.1,1.9,345.7,0.00,3.7,9.5,"05:30:48",1
"18/12/02","05:50",0.0,3.8,96.2,1021.5,320.8,1.1,2.1,310.9,0.00,3.3,9.6,"05:40:56",1
"18/12/02","06:00",0.0,3.7,96.2,1021.5,303.8,1.5,2.9,314.4,0.00,3.2,9.5,"05:58:32",1
"18/12/02","06:10",0.0,3.6,97.2,1021.5,313.6,1.3,2.6,324.9,0.00,3.2,9.6,"06:00:08",1
"18/12/02","06:20",0.0,3.4,96.7,1021.8,295.0,1.5,2.0,278.4,0.00,3.0,9.4,"06:13:28",1
"18/12/02","06:30",0.0,3.6,98.1,1022.0,299.2,1.6,2.5,316.7,0.00,3.4,9.4,"06:24:40",1
"18/12/02","06:40",0.0,4.1,97.6,1022.0,310.1,1.8,2.4,318.8,0.00,3.8,9.3,"06:30:32",1
"18/12/02","06:50",0.0,4.4,97.4,1022.3,303.9,1.8,3.1,324.1,0.00,4.1,9.1,"06:47:36",1
"18/12/02","07:00",0.0,4.7,97.4,1021.8,306.5,2.1,3.3,320.5,0.00,4.4,9.3,"06:56:48",1
"18/12/02","07:10",0.0,4.8,96.7,1021.5,319.7,1.6,3.2,327.4,0.00,4.4,9.2,"07:00:24",1
"18/12/02","07:20",0.0,4.5,97.0,1021.8,318.8,1.6,2.4,319.5,0.00,4.1,9.2,"07:17:52",1
"18/12/02","07:30",0.0,4.1,96.6,1022.0,305.9,0.8,1.7,308.5,0.00,3.6,9.1,"07:27:04",1
"18/12/02","07:40",0.0,4.1,97.7,1021.8,299.1,1.3,1.8,322.0,0.00,3.8,8.8,"07:35:36",1
"18/12/02","07:50",0.0,4.3,97.1,1022.3,308.1,1.8,2.8,320.6,0.00,3.9,9.1,"07:47:28",1
"18/12/02","08:00",0.0,4.7,97.3,1022.3,307.0,1.6,2.6,319.1,0.01,4.3,8.9,"07:52:32",1
"18/12/02","08:10",0.0,5.9,96.9,1022.7,312.3,1.6,2.4,312.9,0.02,5.5,9.3,"08:03:36",1
"18/12/02","08:20",0.0,6.3,96.4,1023.0,307.8,0.5,1.0,312.8,0.03,5.8,9.3,"08:10:24",1
"18/12/02","08:30",0.0,6.9,96.0,1023.4,281.1,0.8,1.3,269.6,0.04,6.3,9.2,"08:22:08",1
"18/12/02","08:40",0.0,7.3,94.2,1023.4,305.5,1.2,2.5,317.9,0.05,6.5,9.4,"08:36:08",1
"18/12/02","08:50",0.0,7.8,90.3,1023.7,288.6,1.1,1.9,316.1,0.07,6.4,9.5,"08:41:04",1
"18/12/02","09:00",0.0,8.7,86.6,1023.7,276.6,0.8,2.1,326.6,0.10,6.6,9.5,"08:59:52",1
"18/12/02","09:10",0.0,9.3,85.5,1023.9,284.7,1.3,2.4,332.5,0.13,7.0,9.9,"09:03:12",1
"18/12/02","09:20",0.0,9.5,83.2,1024.4,288.7,1.3,2.4,302.1,0.15,6.8,9.8,"09:12:56",1
"18/12/02","09:30",0.0,10.0,80.3,1024.1,288.1,1.0,2.0,318.1,0.17,6.8,10.0,"09:24:00",1
"18/12/02","09:40",0.0,10.7,78.6,1024.4,257.4,0.7,1.2,240.5,0.20,7.2,10.2,"09:33:20",1
"18/12/02","09:50",0.0,10.7,74.7,1024.9,247.1,0.7,2.1,238.6,0.22,6.4,10.5,"09:48:56",1
"18/12/02","10:00",0.0,10.9,75.1,1025.1,228.7,1.1,2.5,241.1,0.24,6.7,10.7,"09:58:24",1
"18/12/02","10:10",0.0,11.2,73.4,1024.6,154.0,0.7,1.9,111.0,0.26,6.7,10.9,"10:06:08",1
"18/12/02","10:20",0.0,11.5,72.2,1024.6,215.5,0.8,1.8,206.7,0.28,6.7,10.9,"10:14:56",1
"18/12/02","10:30",0.0,11.7,70.7,1024.6,215.8,1.1,2.1,125.1,0.30,6.6,11.2,"10:24:40",1
"18/12/02","10:40",0.0,11.9,70.1,1024.9,221.9,1.0,2.5,210.2,0.31,6.7,11.3,"10:34:00",1
"18/12/02","10:50",0.0,12.1,67.6,1024.1,308.1,0.6,1.4,118.8,0.33,6.3,11.7,"10:49:44",1
"18/12/02","11:00",0.0,12.7,66.6,1024.1,61.4,0.8,1.6,112.7,0.34,6.7,11.8,"10:54:32",1
"18/12/02","11:10",0.0,12.6,64.9,1023.9,237.9,0.8,1.6,242.4,0.36,6.2,12.1,"11:09:12",1
"18/12/02","11:20",0.0,13.0,64.0,1023.9,243.9,0.6,1.6,254.4,0.37,6.4,12.2,"11:11:12",1
"18/12/02","11:30",0.0,13.3,61.7,1023.7,216.1,1.0,1.9,223.4,0.38,6.2,12.6,"11:29:36",1
"18/12/02","11:40",0.0,13.3,59.5,1023.7,187.7,0.8,2.4,141.3,0.38,5.6,12.8,"11:34:32",1
"18/12/02","11:50",0.0,13.5,59.8,1023.2,226.8,1.6,2.7,230.6,0.39,5.9,12.9,"11:45:36",1
"18/12/02","12:00",0.0,14.2,58.9,1022.7,218.3,0.8,1.8,215.6,0.39,6.3,13.2,"11:50:40",1
"18/12/02","12:10",0.0,14.5,58.4,1022.3,220.6,1.0,1.9,132.2,0.38,6.5,13.3,"12:06:24",1
"18/12/02","12:20",0.0,14.4,58.5,1022.5,215.3,1.1,2.5,158.7,0.37,6.4,13.6,"12:12:00",1
"18/12/02","12:30",0.0,14.7,58.3,1022.0,274.8,1.2,2.8,331.9,0.37,6.6,13.6,"12:27:36",1
"18/12/02","12:40",0.0,14.6,54.8,1022.5,246.5,1.1,2.1,324.0,0.40,5.7,14.0,"12:32:24",1
"18/12/02","12:50",0.0,14.8,54.0,1022.3,209.3,1.0,2.2,314.7,0.39,5.6,14.2,"12:42:00",1
"18/12/02","13:00",0.0,14.8,53.4,1022.0,93.6,0.7,1.8,127.8,0.33,5.5,14.2,"12:50:56",1
"18/12/02","13:10",0.0,15.1,53.6,1022.3,321.8,0.8,1.9,333.0,0.29,5.8,14.3,"13:04:24",1
"18/12/02","13:20",0.0,15.3,53.4,1021.8,288.9,1.0,2.2,321.4,0.28,5.9,14.5,"13:11:20",1
"18/12/02","13:30",0.0,15.5,54.1,1021.5,310.3,1.3,2.0,337.4,0.26,6.3,14.6,"13:20:56",1
"18/12/02","13:40",0.0,15.9,52.6,1021.5,272.0,1.1,2.1,323.2,0.36,6.3,14.6,"13:33:20",1
"18/12/02","13:50",0.0,15.9,54.5,1021.3,241.2,1.0,1.6,202.1,0.24,6.8,14.7,"13:43:52",1
"18/12/02","14:00",0.0,16.5,51.9,1021.1,236.0,0.8,2.1,320.2,0.35,6.6,15.0,"13:59:12",1
"18/12/02","14:10",0.0,16.3,51.3,1020.6,45.4,1.1,2.8,115.3,0.31,6.3,15.1,"14:06:00",1
"18/12/02","14:20",0.0,16.4,51.1,1020.6,153.9,0.6,1.3,42.1,0.26,6.3,15.1,"14:12:08",1
"18/12/02","14:30",0.0,16.7,50.3,1021.1,244.0,1.1,3.2,230.9,0.25,6.4,15.3,"14:24:24",1
"18/12/02","14:40",0.0,17.0,50.8,1020.6,278.9,1.1,2.4,281.1,0.23,6.8,15.2,"14:39:52",1
"18/12/02","14:50",0.0,16.7,51.0,1020.6,239.7,1.1,2.0,231.9,0.21,6.6,15.2,"14:40:24",1
"18/12/02","15:00",0.0,17.0,50.0,1020.6,274.7,0.8,2.1,238.3,0.18,6.6,15.5,"14:50:08",1
"18/12/02","15:10",0.0,16.9,49.6,1021.1,261.8,1.0,2.0,228.2,0.16,6.3,15.3,"15:00:40",1
"18/12/02","15:20",0.0,16.8,52.6,1021.1,247.9,1.1,1.9,250.6,0.12,7.1,15.2,"15:15:52",1
"18/12/02","15:30",0.0,16.4,50.5,1021.3,239.8,1.2,2.2,226.7,0.04,6.1,15.3,"15:28:40",1
"18/12/02","15:40",0.0,16.0,55.0,1021.5,285.8,0.5,1.3,234.3,0.05,7.0,15.3,"15:30:08",1
"18/12/02","15:50",0.0,16.4,53.3,1021.1,255.3,0.3,0.6,159.3,0.08,6.9,15.2,"15:42:48",1
"18/12/02","16:00",0.0,16.0,57.6,1021.1,245.4,1.0,1.6,242.1,0.09,7.7,14.9,"15:52:48",1
"18/12/02","16:10",0.0,16.0,57.0,1021.3,298.3,1.2,2.1,342.0,0.06,7.5,14.8,"16:05:12",1
"18/12/02","16:20",0.0,15.7,57.1,1021.3,273.5,1.2,1.8,263.8,0.03,7.3,14.7,"16:15:44",1
"18/12/02","16:30",0.0,14.9,60.3,1021.3,298.8,1.0,1.7,305.7,0.00,7.3,14.7,"16:20:08",1
"18/12/02","16:40",0.0,14.3,62.6,1021.3,276.4,1.1,1.7,270.1,0.00,7.3,14.3,"16:37:20",1
"18/12/02","16:50",0.0,13.6,66.0,1021.5,297.3,1.1,2.2,324.5,0.00,7.4,14.7,"16:49:36",1
"18/12/02","17:00",0.0,13.1,67.5,1021.3,299.1,1.1,1.6,323.3,0.00,7.3,14.3,"16:50:40",1
"18/12/02","17:10",0.0,12.6,69.8,1021.3,303.2,1.3,2.1,315.3,0.00,7.3,14.2,"17:02:58",1
"18/12/02","17:20",0.0,12.2,71.6,1021.3,298.0,1.2,1.6,315.5,0.00,7.3,14.1,"17:15:12",1
"18/12/02","17:30",0.0,12.1,73.1,1021.8,284.6,1.3,1.8,308.5,0.00,7.5,13.9,"17:21:02",1
"18/12/02","17:40",0.0,12.0,73.1,1021.5,287.3,1.3,1.8,273.4,0.00,7.4,13.9,"17:36:44",1
"18/12/02","17:50",0.0,11.7,73.9,1021.5,307.6,1.3,1.7,296.2,0.00,7.2,13.4,"17:46:42",1
"18/12/02","18:00",0.0,11.3,74.7,1021.5,327.6,2.0,2.5,336.3,0.00,7.0,13.5,"17:53:02",1
"18/12/02","18:10",0.0,10.7,77.6,1021.8,319.3,1.6,2.0,310.9,0.00,7.0,13.3,"18:09:58",1
"18/12/02","18:20",0.0,10.3,78.6,1021.5,319.9,1.3,2.2,318.4,0.00,6.8,13.2,"18:10:08",1
"18/12/02","18:30",0.0,9.8,80.9,1021.3,298.5,1.5,1.8,308.4,0.00,6.7,13.1,"18:29:12",1
"18/12/02","18:40",0.0,9.7,83.1,1021.1,292.6,1.3,1.6,301.3,0.00,7.0,13.0,"18:39:30",1
"18/12/02","18:50",0.0,9.6,82.9,1021.5,304.4,1.6,2.0,324.8,0.00,6.9,13.0,"18:49:44",1
"18/12/02","19:00",0.0,9.4,83.4,1021.3,323.3,1.7,2.2,320.4,0.00,6.8,12.8,"18:51:20",1
"18/12/02","19:10",0.0,8.9,84.2,1021.5,308.4,1.5,2.4,317.2,0.00,6.4,12.7,"19:07:44",1
"18/12/02","19:20",0.0,8.6,86.1,1021.5,307.0,1.7,2.6,322.6,0.00,6.5,12.6,"19:11:28",1
"18/12/02","19:30",0.0,8.7,87.6,1021.5,302.1,1.5,2.0,313.5,0.00,6.8,12.5,"19:20:56",1
"18/12/02","19:40",0.0,8.6,86.9,1021.5,315.9,2.0,2.9,316.0,0.00,6.6,12.4,"19:34:56",1
"18/12/02","19:50",0.0,8.6,88.1,1021.8,295.2,1.3,1.8,306.0,0.00,6.8,12.1,"19:48:24",1
"18/12/02","20:00",0.0,8.8,87.1,1022.0,325.1,1.8,3.1,318.1,0.00,6.8,12.2,"19:56:16",1
"18/12/02","20:10",0.0,8.7,87.8,1022.0,308.2,1.5,2.2,313.4,0.00,6.8,12.0,"20:04:16",1
"18/12/02","20:20",0.0,9.0,88.1,1022.0,311.9,1.6,2.1,314.4,0.00,7.2,11.8,"20:11:52",1
"18/12/02","20:30",0.0,9.2,88.0,1022.3,297.0,1.3,1.8,277.2,0.00,7.4,12.1,"20:20:24",1
"18/12/02","20:40",0.0,9.4,86.1,1021.5,324.8,1.8,2.7,331.5,0.00,7.2,11.8,"20:32:24",1
"18/12/02","20:50",0.0,9.5,87.9,1022.3,289.7,1.7,2.5,292.7,0.00,7.6,11.8,"20:49:20",1
"18/12/02","21:00",0.0,10.0,86.6,1022.5,287.0,1.5,1.9,288.1,0.00,7.9,11.9,"20:50:24",1
"18/12/02","21:10",0.0,10.3,84.5,1022.5,326.6,1.8,2.7,317.0,0.00,7.8,11.8,"21:03:22",1
"18/12/02","21:20",0.0,10.1,84.7,1022.5,313.5,1.6,2.0,323.5,0.00,7.7,11.8,"21:16:48",1
"18/12/02","21:30",0.0,10.1,85.2,1022.3,330.8,1.3,2.1,325.2,0.00,7.8,11.9,"21:24:56",1
"18/12/02","21:40",0.0,9.9,85.5,1021.8,297.6,1.1,1.4,289.3,0.00,7.6,11.8,"21:38:34",1
"18/12/02","21:50",0.0,9.8,86.2,1022.0,297.1,1.5,2.5,318.8,0.00,7.6,11.7,"21:49:20",1
"18/12/02","22:00",0.0,9.9,86.9,1022.0,334.1,1.3,2.0,323.1,0.00,7.9,12.0,"21:50:08",1
"18/12/02","22:10",0.0,9.8,86.9,1021.8,325.1,2.1,2.8,327.6,0.00,7.8,11.8,"22:01:44",1
"18/12/02","22:20",0.0,10.0,88.6,1021.5,282.6,1.5,2.4,318.8,0.00,8.2,11.9,"22:11:04",1
"18/12/02","22:30",0.0,10.7,87.6,1021.3,264.6,1.5,2.0,277.7,0.00,8.8,11.7,"22:21:52",1
"18/12/02","22:40",0.0,10.9,86.4,1021.3,329.4,1.8,2.5,334.6,0.00,8.8,11.8,"22:34:36",1
"18/12/02","22:50",0.0,10.8,86.7,1021.3,310.4,1.7,2.2,313.7,0.00,8.7,11.8,"22:49:42",1
"18/12/02","23:00",0.0,10.9,86.4,1021.3,290.9,1.5,2.2,310.0,0.00,8.8,11.8,"22:50:26",1
"18/12/02","23:10",0.0,10.9,86.3,1021.5,299.0,1.2,1.8,318.7,0.00,8.7,11.8,"23:01:50",1
"18/12/02","23:20",0.0,11.0,85.8,1020.8,335.5,1.5,2.4,324.2,0.00,8.8,11.8,"23:12:48",1
"18/12/02","23:30",0.0,10.8,86.6,1021.3,283.2,1.2,1.9,313.5,0.00,8.7,11.8,"23:20:40",1
"18/12/02","23:40",0.0,10.9,87.9,1021.5,279.0,1.5,2.2,264.7,0.00,9.0,11.8,"23:32:00",1
"18/12/02","23:50",0.0,11.2,87.7,1021.5,311.7,1.2,1.6,324.7,0.00,9.3,11.9,"23:47:10",1
"18/12/02","24:00",0.0,11.1,87.4,1021.3,323.8,1.6,2.2,320.5,0.00,9.1,12.0,"23:54:38",1
